Madison, MN

9:21 PM CST on December 11, 2019 (GMT -0600)
Madison-Lac Qui Parle County

Weather History for KDXX - September, 2019

Change the Weather History Date:

Thursday, September 19, 2019

  Actual Average (KAQP) Record (KAQP)
Temperature  
Mean Temperature 70 °F -  
Max Temperature 84 °F 68 °F 87 °F (1998)
Min Temperature 57 °F 44 °F 37 °F (2003)
Cooling Degree Days 6    
Growing Degree Days 20 (Base 50)    
Moisture  
Dew Point 62 °F    
Average Humidity 78    
Maximum Humidity 100    
Minimum Humidity 45    
Precipitation  
Precipitation 0.00 in - - ()
Sea Level Pressure  
Sea Level Pressure 29.97 in    
Wind  
Wind Speed 4 mph (SSE)    
Max Wind Speed 8 mph    
Max Gust Speed -    
Visibility 10 miles    
Events      
Averages and records for this station are not official NWS values.
T = Trace of Precipitation, MM = Missing Value Source: NWS Daily Summary

Daily Weather History Graph

Daily Weather History Graph

Search for Another Location

Airport or City:

Astronomy

Sep. 19, 2019 Rise Set
Actual Time 7:07 AM CDT 7:28 PM CDT
Civil Twilight 6:38 AM CDT 7:57 PM CDT
Nautical Twilight 6:03 AM CDT 8:32 PM CDT
Astronomical Twilight 5:28 AM CDT 9:07 PM CDT
Moon 10:24 PM CDT (9/19) 12:25 PM CDT (9/19)
Length of Visible Light 13h 19m
Length of Day
12h 20m
Waning Gibbous, 74% of the Moon is Illuminated
Sep 19
Waning Gibbous
Sep 21
Last Quarter
Sep 28
New
Oct 5
First Quarter
Oct 13
Full

Hourly Weather History & Observations

Time (CDT) Temp. Heat Index Dew Point Humidity Pressure Visibility Wind Dir Wind Speed Gust Speed Precip Events Conditions
12:15 AM 64.4 °F - 62.6 °F 94% 29.95 in 10.0 mi SSW 5.8 mph - N/A   Clear
12:16 AM 64.4 °F - 62.6 °F 94% 29.95 in 10.0 mi SSW 5.8 mph - N/A   Clear
12:35 AM 64.4 °F - 60.8 °F 88% 29.95 in 10.0 mi SW 3.5 mph - N/A   Clear
12:57 AM 62.6 °F - 60.8 °F 94% 29.95 in 10.0 mi WSW 3.5 mph - N/A   Clear
1:16 AM 64.4 °F - 60.8 °F 88% 29.95 in 10.0 mi West 3.5 mph - N/A   Clear
1:35 AM 62.6 °F - 60.8 °F 94% 29.95 in 10.0 mi West 3.5 mph - N/A   Clear
1:36 AM 62.6 °F - 60.8 °F 94% 29.95 in 10.0 mi West 3.5 mph - N/A   Clear
1:55 AM 62.6 °F - 60.8 °F 94% 29.95 in 10.0 mi West 3.5 mph - N/A   Clear
1:56 AM 62.6 °F - 60.8 °F 94% 29.95 in 10.0 mi West 3.5 mph - N/A   Clear
2:19 AM 60.8 °F - 60.8 °F 100% 29.95 in 10.0 mi SSW 3.5 mph - N/A   Clear
2:36 AM 60.8 °F - 60.8 °F 100% 29.95 in 10.0 mi SSW 4.6 mph - N/A   Clear
2:56 AM 62.6 °F - 60.8 °F 94% 29.96 in 10.0 mi SSW 4.6 mph - N/A   Clear
3:15 AM 60.8 °F - 59.0 °F 94% 29.96 in 10.0 mi Calm Calm - N/A   Clear
3:16 AM 60.8 °F - 59.0 °F 94% 29.96 in 10.0 mi Calm Calm - N/A   Clear
3:35 AM 60.8 °F - 57.2 °F 88% 29.96 in 10.0 mi SSW 3.5 mph - N/A   Clear
3:39 AM 59.0 °F - 57.2 °F 94% 29.96 in 10.0 mi Calm Calm - N/A   Clear
3:58 AM 60.8 °F - 59.0 °F 94% 29.96 in 10.0 mi WSW 3.5 mph - N/A   Clear
4:15 AM 60.8 °F - 60.8 °F 100% 29.96 in 10.0 mi West 4.6 mph - N/A   Clear
4:35 AM 60.8 °F - 57.2 °F 88% 29.95 in 10.0 mi West 4.6 mph - N/A   Clear
4:36 AM 60.8 °F - 57.2 °F 88% 29.95 in 10.0 mi West 4.6 mph - N/A   Clear
4:55 AM 60.8 °F - 59.0 °F 94% 29.95 in 10.0 mi West 3.5 mph - N/A   Clear
5:18 AM 60.8 °F - 57.2 °F 88% 29.94 in 10.0 mi West 4.6 mph - N/A   Clear
5:36 AM 59.0 °F - 57.2 °F 94% 29.95 in 10.0 mi West 5.8 mph - N/A   Clear
5:56 AM 60.8 °F - 57.2 °F 88% 29.95 in 10.0 mi West 3.5 mph - N/A   Clear
6:15 AM 60.8 °F - 59.0 °F 94% 29.96 in 10.0 mi Calm Calm - N/A   Clear
6:16 AM 60.8 °F - 59.0 °F 94% 29.96 in 10.0 mi Calm Calm - N/A   Clear
6:35 AM 60.8 °F - 57.2 °F 88% 29.97 in 10.0 mi Calm Calm - N/A   Clear
6:57 AM 59.0 °F - 57.2 °F 94% 29.97 in 10.0 mi Calm Calm - N/A   Clear
7:15 AM 57.2 °F - 55.4 °F 94% 29.98 in 10.0 mi North 3.5 mph - N/A   Clear
7:35 AM 57.2 °F - 57.2 °F 100% 29.99 in 10.0 mi ESE 3.5 mph - N/A   Clear
7:36 AM 57.2 °F - 57.2 °F 100% 29.99 in 10.0 mi ESE 3.5 mph - N/A   Clear
7:55 AM 57.2 °F - 57.2 °F 100% 30.00 in 10.0 mi SSE 5.8 mph - N/A   Clear
7:56 AM 57.2 °F - 57.2 °F 100% 30.00 in 10.0 mi SSE 5.8 mph - N/A   Clear
8:19 AM 60.8 °F - 60.8 °F 100% 30.00 in 10.0 mi Calm Calm - N/A   Clear
8:36 AM 62.6 °F - 60.8 °F 94% 30.00 in 10.0 mi Calm Calm - N/A   Clear
8:56 AM 64.4 °F - 62.6 °F 94% 30.01 in 10.0 mi Calm Calm - N/A   Clear
9:15 AM 66.2 °F - 64.4 °F 94% 30.01 in 10.0 mi Calm Calm - N/A   Clear
9:35 AM 68.0 °F - 62.6 °F 83% 30.01 in 10.0 mi Calm Calm - N/A   Clear
10:15 AM 71.6 °F - 62.6 °F 73% 30.00 in 10.0 mi Calm Calm - N/A   Clear
10:35 AM 73.4 °F - 64.4 °F 73% 30.00 in 10.0 mi Calm Calm - N/A   Clear
10:36 AM 73.4 °F - 64.4 °F 73% 30.00 in 10.0 mi Calm Calm - N/A   Clear
10:55 AM 73.4 °F - 64.4 °F 73% 30.01 in 10.0 mi ESE 3.5 mph - N/A   Clear
11:18 AM 75.2 °F - 64.4 °F 69% 30.00 in 10.0 mi ESE 3.5 mph - N/A   Clear
11:36 AM 77.0 °F - 64.4 °F 65% 30.01 in 10.0 mi Calm Calm - N/A   Clear
11:55 AM 78.8 °F - 64.4 °F 61% 30.01 in 10.0 mi SSE 3.5 mph - N/A   Clear
11:56 AM 78.8 °F - 64.4 °F 61% 30.01 in 10.0 mi SE 3.5 mph - N/A   Clear
12:15 PM 78.8 °F - 64.4 °F 61% 30.00 in 10.0 mi Calm Calm - N/A   Clear
12:16 PM 78.8 °F - 64.4 °F 61% 30.00 in 10.0 mi Calm Calm - N/A   Clear
12:35 PM 80.6 °F 82.3 °F 64.4 °F 58% 30.00 in 10.0 mi South 3.5 mph - N/A   Clear
12:57 PM 80.6 °F 81.8 °F 62.6 °F 54% 29.99 in 10.0 mi Calm Calm - N/A   Clear
1:15 PM 82.4 °F 83.4 °F 62.6 °F 51% 29.99 in 10.0 mi South 5.8 mph - N/A   Clear
1:35 PM 82.4 °F 83.4 °F 62.6 °F 51% 29.99 in 10.0 mi SE 4.6 mph - N/A   Clear
1:55 PM 82.4 °F 83.4 °F 62.6 °F 51% 29.98 in 10.0 mi South 6.9 mph - N/A   Clear
1:56 PM 82.4 °F 83.4 °F 62.6 °F 51% 29.98 in 10.0 mi South 6.9 mph - N/A   Clear
2:19 PM 82.4 °F 82.9 °F 60.8 °F 48% 29.98 in 10.0 mi SSE 8.1 mph - N/A   Clear
2:36 PM 82.4 °F 82.9 °F 60.8 °F 48% 29.97 in 10.0 mi SSE 5.8 mph - N/A   Clear
2:56 PM 84.2 °F 85.0 °F 62.6 °F 48% 29.97 in 10.0 mi SE 8.1 mph - N/A   Clear
3:15 PM 84.2 °F 84.4 °F 60.8 °F 45% 29.97 in 10.0 mi SSE 5.8 mph - N/A   Clear
3:35 PM 84.2 °F 85.0 °F 62.6 °F 48% 29.96 in 10.0 mi SE 5.8 mph - N/A   Clear
3:39 PM 84.2 °F 85.0 °F 62.6 °F 48% 29.96 in 10.0 mi SSE 5.8 mph - N/A   Clear
3:58 PM 82.4 °F 82.9 °F 60.8 °F 48% 29.96 in 10.0 mi ESE 6.9 mph - N/A   Clear
4:15 PM 82.4 °F 83.4 °F 62.6 °F 51% 29.95 in 10.0 mi SE 8.1 mph - N/A   Clear
4:36 PM 82.4 °F 83.4 °F 62.6 °F 51% 29.95 in 10.0 mi SE 8.1 mph - N/A   Clear
4:55 PM 82.4 °F 83.9 °F 64.4 °F 54% 29.95 in 10.0 mi SSE 6.9 mph - N/A   Clear
5:18 PM 82.4 °F 83.9 °F 64.4 °F 54% 29.95 in 10.0 mi ESE 6.9 mph - N/A   Clear
5:36 PM 82.4 °F 84.6 °F 66.2 °F 58% 29.95 in 10.0 mi SE 5.8 mph - N/A   Clear
5:56 PM 80.6 °F 82.3 °F 64.4 °F 58% 29.95 in 10.0 mi SE 6.9 mph - N/A   Clear
6:15 PM 80.6 °F 82.7 °F 66.2 °F 61% 29.95 in 10.0 mi ESE 6.9 mph - N/A   Clear
6:16 PM 80.6 °F 82.7 °F 66.2 °F 61% 29.95 in 10.0 mi ESE 5.8 mph - N/A   Clear
6:35 PM 78.8 °F - 66.2 °F 65% 29.95 in 10.0 mi ESE 5.8 mph - N/A   Clear
6:40 PM 78.8 °F - 66.2 °F 65% 29.95 in 10.0 mi ESE 5.8 mph - N/A   Clear
6:57 PM 75.2 °F - 66.2 °F 73% 29.95 in 10.0 mi East 5.8 mph - N/A   Clear
7:15 PM 73.4 °F - 66.2 °F 78% 29.95 in 10.0 mi East 6.9 mph - N/A   Clear
7:35 PM 73.4 °F - 66.2 °F 78% 29.95 in 10.0 mi East 5.8 mph - N/A   Clear
7:36 PM 71.6 °F - 66.2 °F 83% 29.95 in 10.0 mi East 5.8 mph - N/A   Clear
7:55 PM 71.6 °F - 64.4 °F 78% 29.95 in 10.0 mi East 6.9 mph - N/A   Clear
7:56 PM 71.6 °F - 64.4 °F 78% 29.95 in 10.0 mi East 6.9 mph - N/A   Clear
8:19 PM 69.8 °F - 64.4 °F 83% 29.96 in 10.0 mi ESE 5.8 mph - N/A   Clear
8:37 PM 69.8 °F - 64.4 °F 83% 29.96 in 10.0 mi ESE 5.8 mph - N/A   Clear
8:56 PM 69.8 °F - 64.4 °F 83% 29.96 in 10.0 mi ESE 6.9 mph - N/A   Clear
9:15 PM 68.0 °F - 64.4 °F 88% 29.96 in 10.0 mi ESE 5.8 mph - N/A   Clear
9:35 PM 68.0 °F - 64.4 °F 88% 29.96 in 10.0 mi ESE 8.1 mph - N/A   Clear
9:39 PM 69.8 °F - 64.4 °F 83% 29.97 in 10.0 mi ESE 8.1 mph - N/A   Clear
9:57 PM 68.0 °F - 64.4 °F 88% 29.97 in 10.0 mi ESE 6.9 mph - N/A   Clear
10:16 PM 68.0 °F - 64.4 °F 88% 29.97 in 10.0 mi ESE 6.9 mph - N/A   Clear
10:35 PM 69.8 °F - 64.4 °F 83% 29.96 in 10.0 mi ESE 6.9 mph - N/A   Clear
10:36 PM 69.8 °F - 64.4 °F 83% 29.96 in 10.0 mi ESE 6.9 mph - N/A   Clear
10:55 PM 69.8 °F - 64.4 °F 83% 29.96 in 10.0 mi ESE 8.1 mph - N/A   Clear
10:56 PM 69.8 °F - 64.4 °F 83% 29.96 in 10.0 mi ESE 8.1 mph - N/A   Clear
11:18 PM 69.8 °F - 64.4 °F 83% 29.96 in 10.0 mi ESE 5.8 mph - N/A   Clear
11:36 PM 69.8 °F - 64.4 °F 83% 29.97 in 10.0 mi SE 6.9 mph - N/A   Clear
11:55 PM 68.0 °F - 64.4 °F 88% 29.98 in 10.0 mi SE 5.8 mph - N/A   Clear